Pinedale, WY

11:02 AM MDT on July 21, 2017 (GMT -0600)
Wenz

Weather History for KPNA - November, 2012

Change the Weather History Date:

Wednesday, November 14, 2012

  Actual Average (KBPI) Record (KBPI)
Temperature  
Mean Temperature 26 °F -  
Max Temperature 32 °F 36 °F 63 °F (1999)
Min Temperature 19 °F 10 °F -25 °F (1978)
Degree Days  
Heating Degree Days 38    
Moisture  
Dew Point 26 °F    
Average Humidity 96    
Maximum Humidity 100    
Minimum Humidity 80    
Precipitation  
Precipitation 0.00 in - - ()
Sea Level Pressure  
Sea Level Pressure 30.23 in    
Wind  
Wind Speed 1 mph (NNE)    
Max Wind Speed 8 mph    
Max Gust Speed -    
Visibility 8 miles    
Events Snow    
Averages and records for this station are not official NWS values.
T = Trace of Precipitation, MM = Missing Value Source: NWS Daily Summary

Daily Weather History Graph

Daily Weather History Graph

Search for Another Location

Airport or City:

Trip Planner

Search our weather history database for the weather conditions in past years. The results will help you decide how hot, cold, wet, or windy it might be!

Date:

Astronomy

Nov. 14, 2012 Rise Set
Actual Time 7:10 AM MST 4:56 PM MST
Civil Twilight 6:40 AM MST 5:26 PM MST
Nautical Twilight 6:05 AM MST 6:01 PM MST
Astronomical Twilight 5:32 AM MST 6:34 PM MST
Moon 8:05 AM MST (11/14) 5:46 PM MST (11/14)
Length of Visible Light 10h 46m
Length of Day
9h 45m
New Moon, 1% of the Moon is Illuminated
Nov 14
New Moon
Nov 20
First Quarter
Nov 28
Full
Dec 6
Last Quarter
Dec 13
New

Hourly Weather History & Observations

Time (MST) Temp. Windchill Dew Point Humidity Pressure Visibility Wind Dir Wind Speed Gust Speed Precip Events Conditions
12:15 AM 24.8 °F - 24.8 °F 100% 30.26 in 10.0 mi Calm Calm - N/A   Overcast
12:35 AM 24.8 °F - 24.8 °F 100% 30.26 in 10.0 mi Calm Calm - N/A   Overcast
12:55 AM 24.8 °F - 23.0 °F 93% 30.25 in 10.0 mi Calm Calm - N/A   Overcast
1:15 AM 23.0 °F - 23.0 °F 100% 30.24 in 10.0 mi Calm Calm - N/A   Overcast
1:35 AM 24.8 °F - 23.0 °F 93% 30.24 in 10.0 mi Calm Calm - N/A   Overcast
1:55 AM 24.8 °F - 23.0 °F 93% 30.24 in 10.0 mi Calm Calm - N/A   Mostly Cloudy
2:15 AM 24.8 °F - 23.0 °F 93% 30.24 in 10.0 mi Calm Calm - N/A   Mostly Cloudy
2:35 AM 23.0 °F - 23.0 °F 100% 30.24 in 10.0 mi Calm Calm - N/A   Overcast
2:55 AM 23.0 °F - 23.0 °F 100% 30.24 in 10.0 mi Calm Calm - N/A   Overcast
3:15 AM 23.0 °F 18.4 °F 23.0 °F 100% 30.24 in 10.0 mi NE 3.5 mph - N/A   Overcast
3:35 AM 23.0 °F - 23.0 °F 100% 30.23 in 10.0 mi Calm Calm - N/A   Overcast
3:55 AM 23.0 °F - 23.0 °F 100% 30.23 in 10.0 mi Calm Calm - N/A   Overcast
4:15 AM 23.0 °F - 23.0 °F 100% 30.23 in 10.0 mi Calm Calm - N/A   Overcast
4:35 AM 24.8 °F - 23.0 °F 93% 30.23 in 10.0 mi Calm Calm - N/A   Overcast
4:55 AM 24.8 °F - 23.0 °F 93% 30.24 in 10.0 mi Calm Calm - N/A   Overcast
5:15 AM 26.6 °F - 24.8 °F 93% 30.24 in 10.0 mi Calm Calm - N/A   Overcast
5:35 AM 26.6 °F - 24.8 °F 93% 30.23 in 10.0 mi Calm Calm - N/A   Overcast
5:55 AM 26.6 °F - 24.8 °F 93% 30.22 in 10.0 mi Calm Calm - N/A   Overcast
6:15 AM 24.8 °F - 23.0 °F 93% 30.22 in 10.0 mi Calm Calm - N/A   Overcast
6:35 AM 24.8 °F - 23.0 °F 93% 30.22 in 10.0 mi Calm Calm - N/A   Overcast
6:55 AM 23.0 °F - 23.0 °F 100% 30.22 in 10.0 mi Calm Calm - N/A   Overcast
7:15 AM 24.8 °F - 23.0 °F 93% 30.22 in 10.0 mi Calm Calm - N/A   Overcast
7:35 AM 24.8 °F - 24.8 °F 100% 30.22 in 10.0 mi Calm Calm - N/A   Overcast
7:55 AM 26.6 °F - 24.8 °F 93% 30.23 in 10.0 mi Calm Calm - N/A   Overcast
8:15 AM 26.6 °F - 26.6 °F 100% 30.23 in 10.0 mi Calm Calm - N/A   Overcast
8:35 AM 26.6 °F - 26.6 °F 100% 30.23 in 10.0 mi Calm Calm - N/A   Overcast
8:55 AM 28.4 °F - 26.6 °F 93% 30.23 in 4.0 mi Calm Calm - N/A Snow Light Snow
9:15 AM 28.4 °F - 26.6 °F 93% 30.23 in 10.0 mi Calm Calm - N/A   Overcast
9:35 AM 30.2 °F - 28.4 °F 93% 30.22 in 10.0 mi Calm Calm - N/A   Overcast
9:55 AM 32.0 °F - 28.4 °F 87% 30.22 in 10.0 mi Calm Calm - N/A   Overcast
10:15 AM 32.0 °F - 28.4 °F 87% 30.22 in 10.0 mi Calm Calm - N/A   Overcast
10:35 AM 32.0 °F - 26.6 °F 80% 30.22 in 10.0 mi Calm Calm - N/A   Overcast
10:55 AM 32.0 °F 27.5 °F 28.4 °F 87% 30.21 in 10.0 mi East 4.6 mph - N/A   Overcast
11:15 AM 32.0 °F 27.5 °F 28.4 °F 87% 30.21 in 10.0 mi East 4.6 mph - N/A   Overcast
11:35 AM 32.0 °F 27.5 °F 26.6 °F 80% 30.21 in 10.0 mi ESE 4.6 mph - N/A   Overcast
11:55 AM 32.0 °F 28.7 °F 28.4 °F 87% 30.21 in 3.0 mi SSE 3.5 mph - N/A Snow Light Snow
12:15 PM 32.0 °F 28.7 °F 30.2 °F 93% 30.19 in 1.8 mi ENE 3.5 mph - N/A Snow Light Snow
12:35 PM 32.0 °F 28.7 °F 30.2 °F 93% 30.19 in 1.2 mi East 3.5 mph - N/A Snow Light Snow
12:55 PM 32.0 °F 28.7 °F 30.2 °F 93% 30.19 in 1.2 mi East 3.5 mph - N/A Snow Light Snow
1:15 PM 32.0 °F 28.7 °F 32.0 °F 100% 30.19 in 1.5 mi ESE 3.5 mph - N/A Snow Light Snow
1:35 PM 32.0 °F 28.7 °F 32.0 °F 100% 30.19 in 1.2 mi East 3.5 mph - N/A Snow Light Snow
1:55 PM 32.0 °F 26.4 °F 32.0 °F 100% 30.19 in 1.8 mi ESE 5.8 mph - N/A Snow Light Snow
2:15 PM 32.0 °F 26.4 °F 32.0 °F 100% 30.18 in 2.5 mi ESE 5.8 mph - N/A Snow Light Snow
2:35 PM 32.0 °F 25.6 °F 30.2 °F 93% 30.18 in 2.0 mi East 6.9 mph - N/A Snow Light Snow
2:55 PM 32.0 °F 26.4 °F 32.0 °F 100% 30.19 in 2.5 mi East 5.8 mph - N/A Snow Light Snow
3:15 PM 32.0 °F 27.5 °F 30.2 °F 93% 30.19 in 3.0 mi East 4.6 mph - N/A Snow Light Snow
3:35 PM 32.0 °F - 30.2 °F 93% 30.19 in 2.5 mi Calm Calm - N/A Snow Light Snow
3:55 PM 32.0 °F - 30.2 °F 93% 30.19 in 5.0 mi Calm Calm - N/A Snow Light Snow
4:15 PM 30.2 °F - 30.2 °F 100% 30.19 in 5.0 mi Calm Calm - N/A Snow Light Snow
4:35 PM 30.2 °F - 30.2 °F 100% 30.20 in 3.0 mi Calm Calm - N/A Snow Light Snow
4:55 PM 30.2 °F - 30.2 °F 100% 30.20 in 5.0 mi Calm Calm - N/A Snow Light Snow
5:15 PM 30.2 °F - 30.2 °F 100% 30.20 in 10.0 mi Calm Calm - N/A   Mostly Cloudy
5:35 PM 30.2 °F - 30.2 °F 100% 30.21 in 10.0 mi Calm Calm - N/A   Overcast
5:55 PM 30.2 °F - 30.2 °F 100% 30.21 in 10.0 mi Calm Calm - N/A   Mostly Cloudy
6:15 PM 30.2 °F - 30.2 °F 100% 30.22 in 10.0 mi Calm Calm - N/A   Mostly Cloudy
6:35 PM 28.4 °F 24.6 °F 28.4 °F 100% 30.22 in 10.0 mi West 3.5 mph - N/A   Scattered Clouds
6:55 PM 28.4 °F - 28.4 °F 100% 30.23 in 7.0 mi Calm Calm - N/A   Scattered Clouds
7:35 PM 26.6 °F 22.6 °F 26.6 °F 100% 30.24 in 7.0 mi West 3.5 mph - N/A   Scattered Clouds
7:55 PM 26.6 °F 21.2 °F 26.6 °F 100% 30.25 in 10.0 mi West 4.6 mph - N/A   Overcast
8:15 PM 26.6 °F 21.2 °F 26.6 °F 100% 30.25 in 10.0 mi WNW 4.6 mph - N/A   Overcast
8:35 PM 28.4 °F 21.2 °F 28.4 °F 100% 30.25 in 10.0 mi WNW 6.9 mph - N/A   Overcast
8:55 PM 28.4 °F 22.2 °F 28.4 °F 100% 30.26 in 10.0 mi WNW 5.8 mph - N/A   Overcast
9:15 PM 28.4 °F 22.2 °F 28.4 °F 100% 30.26 in 10.0 mi West 5.8 mph - N/A   Overcast
9:35 PM 26.6 °F 19.1 °F 26.6 °F 100% 30.26 in 10.0 mi West 6.9 mph - N/A   Scattered Clouds
9:55 PM 26.6 °F 19.1 °F 24.8 °F 93% 30.27 in 10.0 mi West 6.9 mph - N/A   Clear
10:15 PM 23.0 °F 15.8 °F 23.0 °F 100% 30.27 in 10.0 mi WNW 5.8 mph - N/A   Clear
10:35 PM 21.2 °F 11.7 °F 21.2 °F 100% 30.27 in 10.0 mi WNW 8.1 mph - N/A   Clear
10:55 PM 23.0 °F 13.9 °F 21.2 °F 93% 30.27 in 10.0 mi West 8.1 mph - N/A   Clear
11:15 PM 21.2 °F 16.4 °F 21.2 °F 100% 30.27 in 10.0 mi NNW 3.5 mph - N/A   Clear
11:35 PM 21.2 °F 13.6 °F 19.4 °F 93% 30.28 in 10.0 mi NNW 5.8 mph - N/A   Clear
11:55 PM 19.4 °F - 19.4 °F 100% 30.29 in 10.0 mi Calm Calm - N/A   Clear